Weather History for London-Corbin, KY

Change the Weather History Date:

Thursday, February 14, 2013

  Actual Average Record
Temperature  
Mean Temperature 42 °F 39 °F  
Max Temperature 55 °F 49 °F 70 °F (1959)
Min Temperature 28 °F 29 °F 3 °F (1960)
Degree Days  
Heating Degree Days 23 26  
Month to date heating degree days 370 379  
Since 1 July heating degree days 2953 2942  
Cooling Degree Days 0 0  
Month to date cooling degree days 0 0  
Year to date cooling degree days 0 0  
Moisture  
Dew Point 30 °F    
Average Humidity 69    
Maximum Humidity 100    
Minimum Humidity 38    
Precipitation  
Precipitation 0.00 in 0.14 in 1.45 in (1970)
Month to date precipitation 0.52 1.82  
Year to date precipitation 5.76 5.36  
Sea Level Pressure  
Sea Level Pressure 30.00 in    
Wind  
Wind Speed 5 mph (SSW)    
Max Wind Speed 20 mph    
Max Gust Speed 23 mph    
Visibility 8 miles    
Events      
T = Trace of Precipitation, MM = Missing Value Source: NWS Daily Summary

Daily Weather History Graph

Daily Weather History Graph

Search for Another Location

Airport:

Trip Planner

Search our weather history database for the weather conditions in past years. The results will help you decide how hot, cold, wet, or windy it might be!

Date:

Astronomy

Feb. 14, 2013 Rise Set
Actual Time 7:25 AM EST 6:15 PM EST
Civil Twilight 6:59 AM EST 6:42 PM EST
Nautical Twilight 6:28 AM EST 7:12 PM EST
Astronomical Twilight 5:58 AM EST 7:42 PM EST
Moon 9:35 AM EST (2/14) 11:08 PM EST (2/14)
Length of Visible Light 11h 42m
Length of Day
10h 49m
Waxing Crescent, 21% of the Moon is Illuminated
Feb 14
Waxing Crescent
Feb 17
First Quarter
Feb 25
Full
Mar 4
Last Quarter
Mar 11
New

Hourly Weather History & Observations

Time (EST) Temp. Windchill Dew Point Humidity Pressure Visibility Wind Dir Wind Speed Gust Speed Precip Events Conditions
12:33 AM 28.4 °F - 26.6 °F 93% 29.97 in 1.8 mi Calm Calm - N/A   Partly Cloudy
12:53 AM 28.0 °F - 27.0 °F 96% 30.00 in 2.5 mi Calm Calm - N/A   Clear
1:00 AM 28.4 °F 24.6 °F 26.6 °F 93% 29.98 in 6.0 mi WSW 3.5 mph - N/A   Partly Cloudy
1:17 AM 30.2 °F - 28.4 °F 93% 29.98 in 7.0 mi Calm Calm - N/A   Mostly Cloudy
1:53 AM 28.9 °F - 27.0 °F 92% 30.01 in 5.0 mi Calm Calm - N/A   Mostly Cloudy
2:21 AM 28.4 °F - 26.6 °F 93% 29.98 in 5.0 mi Calm Calm - N/A   Scattered Clouds
2:53 AM 28.9 °F - 27.0 °F 92% 30.01 in 4.0 mi Calm Calm - N/A   Clear
3:53 AM 28.9 °F 25.2 °F 28.0 °F 96% 30.01 in 5.0 mi South 3.5 mph - N/A   Clear
4:11 AM 28.4 °F 24.6 °F 28.4 °F 100% 29.98 in 5.0 mi South 3.5 mph - N/A   Mostly Cloudy
4:53 AM 30.0 °F - 28.9 °F 96% 30.01 in 4.0 mi Calm Calm - N/A   Overcast
5:53 AM 30.9 °F 27.5 °F 30.0 °F 96% 30.01 in 7.0 mi South 3.5 mph - N/A   Overcast
6:34 AM 30.2 °F 24.3 °F 28.4 °F 93% 29.98 in 10.0 mi South 5.8 mph - N/A   Scattered Clouds
6:53 AM 30.9 °F 27.5 °F 28.9 °F 92% 30.01 in 10.0 mi South 3.5 mph - N/A   Clear
7:18 AM 30.2 °F 26.7 °F 28.4 °F 93% 29.99 in 9.0 mi South 3.5 mph - N/A   Mostly Cloudy
7:53 AM 32.0 °F 28.7 °F 30.0 °F 92% 30.01 in 9.0 mi South 3.5 mph - N/A   Overcast
8:53 AM 33.1 °F 28.7 °F 30.0 °F 89% 30.03 in 10.0 mi South 4.6 mph - N/A   Overcast
9:27 AM 35.6 °F 29.9 °F 30.2 °F 81% 30.01 in 10.0 mi South 6.9 mph - N/A   Scattered Clouds
9:44 AM 37.4 °F 29.3 °F 30.2 °F 75% 30.01 in 10.0 mi SSW 12.7 mph 17.3 mph N/A   Mostly Cloudy
9:53 AM 37.0 °F 29.8 °F 30.9 °F 79% 30.03 in 10.0 mi South 10.4 mph - N/A   Overcast
10:53 AM 39.9 °F 32.5 °F 33.1 °F 77% 30.04 in 10.0 mi SSW 12.7 mph - N/A   Overcast
11:26 AM 42.8 °F 37.0 °F 33.8 °F 70% 30.00 in 10.0 mi SSW 10.4 mph - N/A   Partly Cloudy
11:53 AM 44.1 °F 37.7 °F 35.1 °F 71% 30.02 in 10.0 mi SSW 12.7 mph 20.7 mph N/A   Partly Cloudy
12:53 PM 46.9 °F - 35.1 °F 63% 29.99 in 10.0 mi SW 8.1 mph 19.6 mph N/A   Scattered Clouds
1:53 PM 50.0 °F - 33.1 °F 52% 29.97 in 10.0 mi SW 11.5 mph 23.0 mph N/A   Partly Cloudy
2:53 PM 52.0 °F - 33.1 °F 49% 29.94 in 10.0 mi SW 11.5 mph 19.6 mph N/A   Clear
3:53 PM 55.0 °F - 30.0 °F 38% 29.94 in 10.0 mi WSW 12.7 mph 21.9 mph N/A   Partly Cloudy
4:53 PM 54.0 °F - 28.9 °F 38% 29.96 in 10.0 mi West 17.3 mph 23.0 mph N/A   Partly Cloudy
5:53 PM 51.1 °F - 30.0 °F 44% 29.97 in 10.0 mi West 9.2 mph - N/A   Clear
6:53 PM 50.0 °F - 30.0 °F 46% 29.99 in 10.0 mi SW 4.6 mph - N/A   Clear
7:53 PM 46.0 °F - 30.0 °F 54% 30.00 in 10.0 mi Calm Calm - N/A   Clear
8:53 PM 39.0 °F - 30.9 °F 73% 30.00 in 10.0 mi Calm Calm - N/A   Clear
9:53 PM 37.9 °F - 30.9 °F 76% 30.01 in 10.0 mi Calm Calm - N/A   Partly Cloudy
10:53 PM 36.0 °F - 30.0 °F 79% 30.01 in 10.0 mi Calm Calm - N/A   Scattered Clouds
11:53 PM 35.1 °F - 30.0 °F 82% 30.01 in 10.0 mi Calm Calm - N/A   Clear